Weather History for Lancaster, OH

Change the Weather History Date:

Wednesday, April 10, 2013

  Actual Average Record
Temperature  
Mean Temperature 72 °F -  
Max Temperature 82 °F 56 °F 84 °F (2011)
Min Temperature 61 °F 32 °F 15 °F (1997)
Cooling Degree Days 6    
Growing Degree Days 22 (Base 50)    
Moisture  
Dew Point 57 °F    
Average Humidity 60    
Maximum Humidity 81    
Minimum Humidity 44    
Precipitation  
Precipitation 0.00 in - - ()
Sea Level Pressure  
Sea Level Pressure 29.90 in    
Wind  
Wind Speed 11 mph (SW)    
Max Wind Speed 24 mph    
Max Gust Speed 40 mph    
Visibility 10 miles    
Events Thunderstorm    
Averages and records for this station are not official NWS values.
T = Trace of Precipitation, MM = Missing Value Source: NWS Daily Summary

Daily Weather History Graph

Daily Weather History Graph

Search for Another Location

Airport:

Trip Planner

Search our weather history database for the weather conditions in past years. The results will help you decide how hot, cold, wet, or windy it might be!

Date:

Astronomy

Apr. 10, 2013 Rise Set
Actual Time 7:00 AM EDT 8:04 PM EDT
Civil Twilight 6:32 AM EDT 8:31 PM EDT
Nautical Twilight 5:59 AM EDT 9:04 PM EDT
Astronomical Twilight 5:25 AM EDT 9:39 PM EDT
Moon 6:55 AM EDT (4/10) 8:38 PM EDT (4/10)
Length of Visible Light 13h 59m
Length of Day
13h 03m
New Moon, 0% of the Moon is Illuminated
Apr 10
New Moon
Apr 18
First Quarter
Apr 25
Full
May 2
Last Quarter
May 9
New

Hourly Weather History & Observations

Time (EDT) Temp. Heat Index Dew Point Humidity Pressure Visibility Wind Dir Wind Speed Gust Speed Precip Events Conditions
12:53 AM 69.1 °F - 54.0 °F 58% 29.96 in 10.0 mi WSW 8.1 mph - N/A   Clear
1:53 AM 68.0 °F - 55.0 °F 63% 29.96 in 10.0 mi WSW 9.2 mph - N/A   Clear
2:53 AM 68.0 °F - 55.0 °F 63% 29.94 in 10.0 mi WSW 9.2 mph - N/A   Mostly Cloudy
3:53 AM 68.0 °F - 55.0 °F 63% 29.94 in 10.0 mi SW 6.9 mph - N/A   Overcast
4:53 AM 66.0 °F - 55.0 °F 68% 29.93 in 10.0 mi SW 4.6 mph - N/A   Mostly Cloudy
5:53 AM 64.9 °F - 55.0 °F 70% 29.93 in 10.0 mi SW 4.6 mph - N/A   Partly Cloudy
6:53 AM 66.0 °F - 55.9 °F 70% 29.94 in 10.0 mi SW 6.9 mph - N/A   Mostly Cloudy
7:53 AM 68.0 °F - 55.9 °F 65% 29.94 in 10.0 mi SSW 9.2 mph - N/A   Mostly Cloudy
8:53 AM 70.0 °F - 55.9 °F 61% 29.94 in 10.0 mi SW 11.5 mph - N/A   Mostly Cloudy
9:53 AM 73.9 °F - 57.0 °F 55% 29.92 in 10.0 mi SW 11.5 mph 21.9 mph N/A   Clear
10:53 AM 75.9 °F - 57.9 °F 54% 29.92 in 10.0 mi SW 16.1 mph 28.8 mph N/A   Partly Cloudy
11:53 AM 78.1 °F - 59.0 °F 52% 29.91 in 10.0 mi SW 17.3 mph 32.2 mph N/A   Scattered Clouds
12:43 PM 80.6 °F 81.5 °F 60.8 °F 51% 29.93 in 10.0 mi SW 17.3 mph 28.8 mph N/A Thunderstorm Mostly Cloudy
12:53 PM 80.1 °F 80.9 °F 60.1 °F 50% 29.91 in 10.0 mi WSW 19.6 mph 28.8 mph N/A   Mostly Cloudy
1:53 PM 79.0 °F - 60.1 °F 52% 29.90 in 10.0 mi WSW 21.9 mph 25.3 mph N/A   Clear
2:53 PM 82.0 °F 82.4 °F 60.1 °F 47% 29.86 in 10.0 mi SW 17.3 mph 28.8 mph N/A   Scattered Clouds
3:53 PM 82.0 °F 82.4 °F 60.1 °F 47% 29.83 in 10.0 mi SW 20.7 mph 31.1 mph N/A   Scattered Clouds
4:53 PM 81.0 °F 81.3 °F 59.0 °F 47% 29.82 in 10.0 mi SW 13.8 mph 26.5 mph N/A   Partly Cloudy
5:53 PM 81.0 °F 81.0 °F 57.0 °F 44% 29.80 in 10.0 mi SW 15.0 mph 25.3 mph N/A   Mostly Cloudy
6:53 PM 79.0 °F - 55.9 °F 45% 29.81 in 10.0 mi WSW 15.0 mph 26.5 mph N/A   Clear
7:53 PM 77.0 °F - 55.9 °F 48% 29.83 in 10.0 mi West 6.9 mph - N/A   Scattered Clouds
8:09 PM 68.0 °F - 53.6 °F 60% 29.88 in 10.0 mi North 24.2 mph 40.3 mph N/A   Squalls
8:21 PM 66.2 °F - 53.6 °F 64% 29.89 in 10.0 mi NNE 18.4 mph 26.5 mph N/A   Overcast
8:53 PM 64.0 °F - 55.0 °F 73% 29.89 in 10.0 mi NNE 9.2 mph - N/A   Overcast
9:53 PM 62.1 °F - 55.0 °F 78% 29.87 in 10.0 mi East 5.8 mph - 0.00 in   Scattered Clouds
10:53 PM 61.0 °F - 55.0 °F 81% 29.86 in 10.0 mi East 4.6 mph - N/A   Clear
11:53 PM 61.0 °F - 55.0 °F 81% 29.86 in 10.0 mi ESE 3.5 mph - N/A   Clear